Regional Weather Roundup
Issued by NWS

Home | Current Version | Previous Version | Text Only | Print | Product List | Glossary Off
Versions: 1 2 3 4 5 6 7 8 9 10 11 12 13 14 15 16 17 18 19 20 21 22 23 24 25 26 27 28 29 30 31 32 33 34 35 36 37 38 39 40 41 42 43 44 45 46 47 48 49 50

000
ASUS43 KMKX 250000
RWRWI

WISCONSIN REGIONAL WEATHER ROUNDUP
NATIONAL WEATHER SERVICE MILWAUKEE/SULLIVAN WI
700 PM CDT TUE MAY 24 2016

NOTE: "FAIR" INDICATES FEW OR NO CLOUDS BELOW 12,000 FEET WITH NO
SIGNIFICANT WEATHER AND/OR OBSTRUCTIONS TO VISIBILITY.

WIZ001-002-006>008-014>016-023>028-250100-
NORTHWEST WISCONSIN

CITY           SKY/WX    TMP DP  RH WIND       PRES   REMARKS
SUPERIOR ARPT  FOG       51  50  99 NE9G16    29.94S VSB<1/4
ASHLAND        CLOUDY    62  58  86 NE8       29.95R
6HR MIN TEMP:  62; 6HR MAX TEMP:  74; 6HR PCP:  0.01;

HAYWARD        CLOUDY    77  59  53 N8        29.92R
6HR MIN TEMP:  73; 6HR MAX TEMP:  80;

SIREN          MOSUNNY   79  49  35 CALM      29.90F
CUMBERLAND     SUNNY     77  52  41 W7        29.92S
RICE LAKE      MOSUNNY   79  50  36 W6        29.92S
CHETEK         MOSUNNY   78  57  47 NW3       29.90S
LADYSMITH      SUNNY     78  53  43 W8        29.93S
EAU CLAIRE     NOT AVBL
MENOMONIE      CLOUDY    83  49  30 W5        29.89F HX  81
NEW RICHMOND   MOSUNNY   79  47  32 NW3       29.90F
OSCEOLA          N/A     80  53  40 CALM      29.92F HAZE    HX  80
$$

WIZ003>005-009-010-017-018-250100-
NORTH CENTRAL WISCONSIN

CITY           SKY/WX    TMP DP  RH WIND       PRES   REMARKS
MANITOWISH WTR NOT AVBL
ARBOR VITAE    MOSUNNY   72  55  55 N10       29.93R
WOODRUFF       MOSUNNY   72  55  55 N10       29.93R
RHINELANDER    MOSUNNY   75  54  47 SW7       29.93R
6HR MIN TEMP:  67; 6HR MAX TEMP:  78; 6HR PCP: TRACE;

EAGLE RIVER      N/A     70  54  57 NW9       29.93R
LAND O LAKES   CLOUDY    68  61  78 W5        29.94R
PHILLIPS       PTSUNNY   74  58  55 W5        29.92R
6HR MIN TEMP:  70; 6HR MAX TEMP:  78;

TOMAHAWK       CLOUDY    77  54  44 W7        29.93R
MEDFORD        MOSUNNY   76  59  56 SW7       29.93S
MERRILL        MOSUNNY   76  58  53 W6        29.94R
$$

WIZ029-030-035-036-043>047-250100-
CENTRAL WISCONSIN

CITY           SKY/WX    TMP DP  RH WIND       PRES   REMARKS
WAUSAU         MOSUNNY   79  55  43 W8        29.91R
6HR MIN TEMP:  73; 6HR MAX TEMP:  83;

MOSINEE        MOSUNNY   75  55  50 W7        29.94R
MARSHFIELD     MOSUNNY   79  54  41 W8        29.91S
6HR MIN TEMP:  76; 6HR MAX TEMP:  81;

STEVENS POINT  SUNNY     78  52  39 W7        29.93S
WAUPACA        PTSUNNY   82  55  39 W7        29.91S HX  81
6HR MIN TEMP:  78; 6HR MAX TEMP:  84;

WAUTOMA        MOSUNNY   81  57  43 W8        29.91F HX  81
6HR MIN TEMP:  76; 6HR MAX TEMP:  83;

WISC RAPIDS    SUNNY     80  55  42 W6        29.92F HX  80
6HR MIN TEMP:  75; 6HR MAX TEMP:  83;

CAMP DOUGLAS   NOT AVBL
$$

WIZ011>013-019>022-031-037>040-048>050-250100-
NORTHEAST WISCONSIN

CITY           SKY/WX    TMP DP  RH WIND       PRES   REMARKS
ANTIGO         MOSUNNY   74  56  53 W10       29.94R
SHAWANO        PTSUNNY   80  59  48 NW6       29.91R HX  81
6HR MIN TEMP:  71; 6HR MAX TEMP:  82; 6HR PCP:  0.10;

OCONTO         MOSUNNY   79  60  51 W9        29.89R HX  80
STURGEON BAY   NOT AVBL
GREEN BAY      SUNNY     81  57  43 W6        29.90R HX  81
6HR MIN TEMP:  78; 6HR MAX TEMP:  84;

MANITOWOC      NOT AVBL
APPLETON       PTSUNNY   79  54  41 SW8       29.90S
CLINTONVILLE   PTSUNNY   81  52  36 W9        29.90R HX  80
OSHKOSH        SUNNY     79  57  46 SW5       29.90F HX  80
6HR MIN TEMP:  76; 6HR MAX TEMP:  82; 6HR PCP: TRACE;

$$

WIZ032>034-041-042-053>061-250100-
SOUTHWEST WISCONSIN

CITY           SKY/WX    TMP DP  RH WIND       PRES   REMARKS
LA CROSSE      SUNNY     82  57  42 SE3       29.89F HX  82
6HR MIN TEMP:  78; 6HR MAX TEMP:  84;

SPARTA         SUNNY     81  57  44 SW5       29.92S HX  81
VIROQUA        SUNNY     80  55  40 CALM      29.93F HX  80
BOSCOBEL       SUNNY     84  57  39 CALM      29.90S HX  83
6HR MIN TEMP:  80; 6HR MAX TEMP:  86;

PRAIRIE DU CHI SUNNY     80  57  46 CALM      29.88S HX  80
PLATTEVILLE    CLOUDY    82  60  47 W6        29.92S HX  82
$$

WIZ056-057-062-063-064-067-068-250100-
SOUTH CENTRAL WISCONSIN

CITY           SKY/WX    TMP DP  RH WIND       PRES   REMARKS
REEDSBURG      SUNNY     80  58  47 SW6       29.92S HX  80
BARABOO/DELLS  SUNNY     80  55  41 SW3       29.92F HX  80
LONE ROCK      NOT AVBL
MINERAL POINT  SUNNY     81  55  41 SW6       29.92F HX  80
MADISON        PTSUNNY   81  60  48 VRB3      29.91F HX  82
6HR MIN TEMP:  74; 6HR MAX TEMP:  82; 6HR PCP: TRACE;

MIDDLETON      SUNNY     81  60  48 W6        29.92F HX  81
WATERTOWN      CLOUDY    81  60  49 W7        29.91F HX  81
MONROE         MOSUNNY   81  57  44 NW7       29.92S HX  81
JANESVILLE     NOT AVBL
$$

WIZ051-052-058>065-066-070>072-250100-
SOUTHEAST WISCONSIN

CITY           SKY/WX    TMP DP  RH WIND       PRES   REMARKS
MILWAUKEE      CLOUDY    72  60  66 NE7       29.92R
6HR MIN TEMP:  72; 6HR MAX TEMP:  85;

WAUKESHA       PTSUNNY   79  59  50 W5        29.94S HX  80
MILWAUKEE/TIMM CLOUDY    79  55  44 E6        29.92S
RACINE         CLOUDY    70  49  47 S6        29.94R
6HR MIN TEMP:  70; 6HR MAX TEMP:  84;

BURLINGTON     MOSUNNY   82  53  35 SW6       29.92S HX  81
KENOSHA        MOSUNNY   82  52  35 SW7       29.92R HX  81
6HR MIN TEMP:  82; 6HR MAX TEMP:  86;

FOND DU LAC    MOSUNNY   79  61  53 W6        29.91F HX  80
6HR MIN TEMP:  73; 6HR MAX TEMP:  83; 6HR PCP:  0.02;

SHEBOYGAN      MOSUNNY   71  59  65 S3        29.92F
6HR MIN TEMP:  71; 6HR MAX TEMP:  82; 6HR PCP:  0.03;

WEST BEND      MOSUNNY   79  55  44 W10       29.92S
JUNEAU         SUNNY     80  59  48 W8        29.93F HX  80
$$

LSZ147-162-250100-
LAKE SUPERIOR

STATION/POSITION TIME  TEMP    WIND        PRES    WAVE
                       AIR SEA DIR/SP/G            HT/PER
                 (UTC) (F)     (DEG/KT/KT) (MB)    (FT/S)
W MID LAKE BUOY  2250   44 38   50/ 10/ 12 1013.8S   1/ 2
DEVILS ISLAND    2300   48      60/ 14/ 17 1014.3R
SAXON HARBOR     2300   49      CALM  /  2 1013.2
$$

LMZ867-665-643>646-250100-
LAKE MICHIGAN

STATION/POSITION TIME  TEMP    WIND        PRES    WAVE
                       AIR SEA DIR/SP/G            HT/PER
                 (UTC) (F)     (DEG/KT/KT) (MB)    (FT/S)
CHAMBERS ISLAND  2300   63      70/  6/ 11 1012.9R
N MID LAKE BUOY  2250   51 44  270/ 14/ 17 1013.8R   2/ 4
NORTHPORT PIER   2300   57      40/  2/  3 1012.9S
SISTER BAY       2304   67     110/  5/  8   N/A
ALGOMA LAKESHORE 2302          200/ 10/ 12   N/A
KEWAUNEE LAKESHO 2300   56                 1011.7
SHEBOYGAN LAKESH 2300   65     170/ 13/ 14 1013.7S
PORT WASHINGTON  2300   63     100/  2/  5 1014.6R
S MID LAKE BUOY  2250   57 49  130/ 10/ 10 1013.5F   1
KENOSHA   LAKESH 2300   61     170/ 10/ 11 1012.9F
$$

TC  - TEMPERATURE IN CELSIUS
VSB - VISIBILITY IN STATUTE MILES
WCI - WIND CHILL INDEX
HX  - HEAT INDEX





USA.gov is the U.S. government's official web portal to all federal, state and local government web resources and services.